Back to catalog

SATURNIN-1

AliveSciencePO
NORAD 62620·PAYLOAD·🇨🇿 Czechia
This satellite name has not been confirmed by official sources yet.

Launched Jan 14, 2025 from Vandenberg Space Force Base

Loading…

Next Passes (next 24 hours)

TLE

FreshSource: Space-Track

Epoch: Sep 14, 2026, 04:58 UTC

1 62620U 25009M   26257.20746858  .00715765  23384-3  14703-2 0  9995
2 62620  97.3772 352.7995 0009583 268.3426  91.6754 15.99268760 93466

Track SATURNIN-1 in real time with AllMySat

Download on the App Store